Date String (YYYY-MM-DD hh:mm:ss) UTC,Instrument flags,Ambient pressure (hPa),Sample flow (lpm),Bypass flow (lpm),Sample temperature (°C),Ambient temperature (°C),ASC tube jacket temperature (°C),LED temperature (°C),Box temperature (°C),Sample RH (%),Span deviation,Mass concentration (μg/m³),Mass concentration (μg/m³),Mass concentration (μg/m³)
DateTimeUTC,F1_M11,P_M11,Q1_M11,Q2_M11,T1_M11,T2_M11,T3_M11,T4_M11,T5_M11,U1_M11,ZSPAN_M11,X0_M11,X2_M11,X1_M11
2022-12-01 04:00:00,,0820.9,5.00,0.00,22.2,20.7,00.0,31.1,23.9,10.2,-000.1,0033.59,0026.50,0025.79
2022-12-01 04:01:00,,0821.0,5.00,0.00,22.1,20.7,00.0,31.1,23.9,10.2,0000.0,0034.04,0026.57,0025.81
2022-12-01 04:02:00,,0821.0,5.00,0.00,22.1,20.7,00.0,31.1,23.9,10.2,0000.1,0033.94,0026.63,0025.83
2022-12-01 04:03:00,,0820.9,4.99,0.00,22.1,20.6,00.0,31.1,23.9,10.2,0000.2,0033.96,0026.67,0025.84
2022-12-01 04:04:00,,0820.9,5.00,0.00,22.1,20.6,00.0,31.1,23.9,10.3,-000.1,0034.21,0026.72,0025.85
2022-12-01 04:05:00,,0820.8,5.00,0.00,22.1,20.6,00.0,31.1,23.8,10.4,-000.3,0034.33,0026.73,0025.86
2022-12-01 04:06:00,,0820.8,5.00,0.00,22.1,20.7,00.0,31.0,23.9,10.4,-000.5,0034.19,0026.67,0025.81
2022-12-01 04:07:00,,0820.8,5.01,0.00,22.1,21.4,00.0,31.0,24.0,10.4,-000.2,0033.98,0026.57,0025.73
2022-12-01 04:08:00,,0820.9,5.00,0.00,22.2,22.1,00.0,31.0,24.2,10.4,0000.2,0033.62,0026.29,0025.43
2022-12-01 04:09:00,,0820.9,5.00,0.00,22.3,21.8,00.0,31.0,24.2,10.4,-000.2,0033.37,0026.08,0025.20
2022-12-01 04:10:00,,0820.9,5.00,0.00,22.2,21.2,00.0,31.1,24.0,10.4,0000.1,0032.80,0025.84,0024.96
2022-12-01 04:11:00,,0820.7,4.99,0.00,22.2,20.8,00.0,31.1,23.9,10.5,0000.3,0031.20,0025.68,0024.85
2022-12-01 04:12:00,,0820.7,5.01,0.00,22.1,20.7,00.0,31.1,23.9,10.5,0000.5,0031.04,0025.58,0024.78
2022-12-01 04:13:00,,0820.9,5.02,0.00,22.1,20.6,00.0,31.1,23.9,10.5,0000.5,0030.83,0025.50,0024.70
2022-12-01 04:14:00,,0820.8,5.00,0.00,22.1,20.6,00.0,31.1,23.9,10.4,0000.3,0030.87,0025.45,0024.66
2022-12-01 04:15:00,,0820.8,4.99,0.00,22.1,20.6,00.0,31.1,23.9,10.4,0000.8,0030.63,0025.33,0024.58
2022-12-01 04:16:00,,0820.7,4.99,0.00,22.1,20.5,00.0,31.1,23.8,10.4,0001.0,0029.96,0025.12,0024.38
2022-12-01 04:17:00,,0820.7,5.00,0.00,22.0,20.5,00.0,31.1,23.8,10.5,0001.3,0030.16,0024.99,0024.21
2022-12-01 04:18:00,,0820.7,5.02,0.00,22.0,20.4,00.0,31.1,23.8,10.5,0001.1,0030.48,0024.76,0023.98
2022-12-01 04:19:00,,0820.7,5.00,0.00,22.0,20.4,00.0,31.0,23.7,10.6,0000.9,0030.50,0024.61,0023.86
2022-12-01 04:20:00,,0820.6,5.00,0.00,22.0,21.1,00.0,31.0,23.9,10.6,0001.3,0030.31,0024.36,0023.62
2022-12-01 04:21:00,,0820.6,5.00,0.00,22.1,22.0,00.0,30.9,24.1,10.6,0000.8,0029.99,0024.12,0023.38
2022-12-01 04:22:00,,0820.6,5.00,0.00,22.2,22.0,00.0,31.0,24.1,10.7,0000.5,0030.37,0023.73,0022.96
2022-12-01 04:23:00,,0820.6,5.00,0.00,22.2,21.5,00.0,31.0,24.1,10.7,0000.3,0029.59,0023.28,0022.51
2022-12-01 04:24:00,,0820.6,4.98,0.00,22.2,21.2,00.0,31.0,24.0,10.7,0000.1,0028.91,0022.87,0022.12
2022-12-01 04:25:00,,0820.6,5.01,0.00,22.2,21.0,00.0,31.1,23.9,10.7,0000.4,0028.51,0022.42,0021.69
2022-12-01 04:26:00,,0820.7,5.01,0.00,22.1,20.8,00.0,31.1,24.0,10.8,0000.3,0028.59,0022.07,0021.33
2022-12-01 04:27:00,,0820.6,4.99,0.00,22.1,20.8,00.0,31.1,23.9,10.7,0000.3,0029.42,0021.80,0021.06
2022-12-01 04:28:00,,0820.6,4.99,0.00,22.1,20.8,00.0,31.1,23.9,10.7,0000.2,0028.85,0021.53,0020.81
2022-12-01 04:29:00,,0820.5,4.99,0.00,22.1,20.8,00.0,31.1,23.9,10.6,0000.5,0028.23,0021.36,0020.63
2022-12-01 04:30:00,,0820.4,5.00,0.00,22.1,20.8,00.0,31.0,23.9,10.6,0000.8,0028.21,0021.28,0020.55
2022-12-01 04:31:00,,0820.5,5.00,0.00,22.1,20.8,00.0,31.0,23.9,10.6,0000.9,0028.24,0021.27,0020.53
2022-12-01 04:32:00,,0820.6,4.99,0.00,22.1,20.8,00.0,31.0,23.9,10.6,0001.2,0028.45,0021.34,0020.54
2022-12-01 04:33:00,,0820.7,5.00,0.00,22.1,20.8,00.0,31.0,23.9,10.6,0001.6,0028.05,0021.42,0020.61
2022-12-01 04:34:00,,0820.7,5.01,0.00,22.2,21.5,00.0,31.0,24.0,10.5,0001.3,0027.90,0021.51,0020.71
2022-12-01 04:35:00,,0820.6,5.00,0.00,22.3,22.2,00.0,31.0,24.2,10.5,0001.4,0027.97,0021.54,0020.74
2022-12-01 04:36:00,,0820.6,5.00,0.00,22.3,22.1,00.0,31.0,24.3,10.5,0001.2,0027.87,0021.56,0020.79
2022-12-01 04:37:00,,0820.5,5.01,0.00,22.3,21.8,00.0,31.1,24.2,10.6,0000.7,0027.58,0021.62,0020.85
2022-12-01 04:38:00,,0820.4,5.00,0.00,22.3,21.5,00.0,31.1,24.2,10.6,0000.5,0026.45,0021.63,0020.84
2022-12-01 04:39:00,,0820.4,4.98,0.00,22.3,21.3,00.0,31.1,24.2,10.5,0000.6,0026.02,0021.40,0020.64
2022-12-01 04:40:00,,0820.6,5.00,0.00,22.3,21.2,00.0,31.1,24.2,10.5,0000.1,0025.64,0021.17,0020.43
2022-12-01 04:41:00,,0820.6,5.00,0.00,22.3,21.1,00.0,31.2,24.1,10.5,-000.6,0025.12,0021.06,0020.34
2022-12-01 04:42:00,,0820.6,5.00,0.00,22.3,21.1,00.0,31.1,24.1,10.5,-001.2,0024.75,0020.85,0020.17
2022-12-01 04:43:00,,0820.6,5.00,0.00,22.3,21.0,00.0,31.1,24.1,10.5,-001.8,0024.58,0020.74,0020.12
2022-12-01 04:44:00,,0820.6,5.00,0.00,22.3,21.0,00.0,31.1,24.1,10.5,-002.1,0024.30,0020.61,0020.04
2022-12-01 04:45:00,,0820.5,5.00,0.00,22.2,20.9,00.0,31.1,24.0,10.5,-001.8,0024.10,0020.51,0019.96
2022-12-01 04:46:00,,0820.3,5.00,0.00,22.2,20.9,00.0,31.1,24.0,10.5,-001.7,0023.84,0020.34,0019.80
2022-12-01 04:47:00,,0820.3,5.00,0.00,22.2,20.9,00.0,31.1,24.0,10.5,-002.0,0023.56,0020.00,0019.46
2022-12-01 04:48:00,,0820.3,5.00,0.00,22.2,20.9,00.0,31.1,24.0,10.5,-001.9,0022.86,0019.19,0018.68
2022-12-01 04:49:00,,0820.4,5.01,0.00,22.3,21.7,00.0,31.1,24.2,10.5,-002.0,0021.96,0018.37,0017.91
2022-12-01 04:50:00,,0820.6,5.01,0.00,22.4,22.4,00.0,31.1,24.4,10.4,-001.9,0021.74,0017.71,0017.26
2022-12-01 04:51:00,,0820.6,4.99,0.00,22.4,22.3,00.0,31.1,24.4,10.4,-001.6,0021.23,0017.13,0016.68
2022-12-01 04:52:00,,0820.6,5.00,0.00,22.4,21.9,00.0,31.2,24.3,10.4,-001.7,0020.67,0016.51,0016.04
2022-12-01 04:53:00,,0820.6,5.00,0.00,22.4,21.6,00.0,31.2,24.3,10.4,-001.3,0020.35,0015.91,0015.44
2022-12-01 04:54:00,,0820.3,5.01,0.00,22.4,21.4,00.0,31.2,24.2,10.4,-000.5,0019.60,0015.20,0014.75
2022-12-01 04:55:00,,0820.3,5.00,0.00,22.4,21.3,00.0,31.2,24.2,10.4,-000.3,0018.99,0014.54,0014.06
2022-12-01 04:56:00,,0820.5,4.99,0.00,22.4,21.2,00.0,31.2,24.2,10.4,-000.9,0018.36,0013.92,0013.44
2022-12-01 04:57:00,,0820.5,4.99,0.00,22.4,21.2,00.0,31.2,24.2,10.3,-000.5,0018.00,0013.43,0012.93
2022-12-01 04:58:00,,0820.4,5.01,0.00,22.4,21.1,00.0,31.2,24.1,10.2,0000.0,0017.52,0013.08,0012.60
2022-12-01 04:59:00,,0820.4,5.01,0.00,22.3,21.0,00.0,31.2,24.1,10.1,0000.1,0017.53,0013.19,0012.70
